Location: Corralito
(14.1667°N, 87.1833°W)
Time: 22:48:53
(UTC+00:00)

Hubble Space Telescope - Pass Details

Date: 07 June 2020
Orbit: 536 x 540 km, 28.5° (Epoch: 12 July)

Event Time Altitude Azimuth Distance (km) Brightness Sun altitude
Rises 01:16:56 0° 289° (WNW) 2,673 6.2 -14.2°
Reaches altitude 10° 01:19:15 10° 284° (WNW) 1,782 4.7 -14.7°
Maximum altitude 01:23:14 49° 209° (SSW) 689 1.3 -15.5°
Enters shadow 01:25:09 27° 147° (SSE) 1,045 1.7 -15.9°
